Location: Ward Pound Ridge Reservation
(41.2500°N, 73.6000°W)
Time: 02:33:50
(UTC-04:00)

Vanguard 1 Rocket - Visible Passes

Search period start: 14 August 2018 00:00
Search period end: 24 August 2018 00:00
Orbit: 650 x 4227 km, 34.3° (Epoch: 12 August)

Date Brightness Start Highest point End Pass type
(mag) Time Alt. Az. Time Alt. Az. Time Alt. Az.
14 Aug 10.3 01:12:08 39° SE 01:13:16 39° SE 01:34:30 10° E visible
14 Aug 10.4 03:29:23 30° SW 03:42:25 67° SSE 04:08:23 10° E visible
15 Aug 10.7 00:04:35 24° ESE 00:04:35 24° ESE 00:17:12 10° E visible
15 Aug 10.0 02:21:49 45° SSW 02:28:16 58° SSE 02:53:10 10° E visible
15 Aug 10.6 04:39:04 12° WSW 04:59:51 73° S 05:25:26 10° ESE visible
16 Aug 10.1 01:14:15 45° SSE 01:15:13 45° SE 01:37:13 10° E visible
16 Aug 10.4 03:31:30 29° WSW 03:44:47 70° SSE 04:10:59 10° E visible
17 Aug 10.5 00:06:42 29° ESE 00:06:42 29° ESE 00:20:25 10° E visible
17 Aug 9.9 02:23:56 47° SSW 02:30:31 62° SSE 02:55:43 10° E visible
17 Aug 10.6 04:41:12 10° W 05:02:18 72° S 05:28:01 10° ESE visible
17 Aug 11.0 22:59:09 13° E 22:59:09 13° E 23:02:01 10° E visible
18 Aug 9.9 01:16:24 50° SSE 01:17:20 51° SSE 01:39:48 10° E visible
18 Aug 10.4 03:33:39 27° WSW 03:47:15 72° S 04:13:33 10° E visible
19 Aug 10.3 00:08:52 34° ESE 00:08:52 34° ESE 00:23:19 10° E visible
19 Aug 9.9 02:26:07 47° SW 02:32:54 66° SSE 02:58:14 10° E visible
19 Aug 10.6 04:43:55 10° W 05:04:43 70° S 05:30:30 10° ESE visible
19 Aug 10.9 23:01:22 16° E 23:01:22 16° E 23:05:58 10° E visible
20 Aug 9.7 01:18:37 55° SSE 01:19:35 56° SSE 01:42:19 10° E visible
20 Aug 10.3 03:35:52 24° WSW 03:49:45 72° S 04:16:03 10° ESE visible
21 Aug 10.2 00:11:08 38° ESE 00:11:08 38° ESE 00:26:01 10° E visible
21 Aug 9.9 02:28:24 46° SW 02:35:25 69° S 03:00:43 10° E visible
21 Aug 10.6 04:46:50 10° W 05:07:07 67° SSW 05:32:51 10° ESE visible
21 Aug 10.7 23:03:42 19° E 23:03:42 19° E 23:09:19 10° E visible
22 Aug 9.6 01:20:58 60° S 01:22:00 60° SSE 01:44:47 10° E visible
22 Aug 10.3 03:38:13 22° W 03:52:17 71° S 04:18:28 10° ESE visible
23 Aug 10.0 00:13:34 42° ESE 00:13:34 42° ESE 00:28:37 10° E visible
23 Aug 9.9 02:30:50 44° WSW 02:37:59 70° S 03:03:09 10° E visible
23 Aug 10.6 04:49:47 10° W 05:09:29 63° SSW 05:35:01 10° SE visible
23 Aug 10.6 23:06:14 21° E 23:06:14 21° E 23:12:19 10° E visible
